COSMOS 1275 DEB, 42120

Orbit data source: Space-Track

COSMOS 1275 DEB, 42120 is space debris in LEO originally from a launch on Thu, 04 Jun 1981 UTC launched from the Plesetsk Missile And Space Complex (PKMTR). Debris objects in space refer to the collection of defunct objects orbiting the Earth. Examples of debris include non-operational satellites, rocket bodies, and fragments generated from explosions, collisions, or faulty payload assembly.

Loading next visibility...
Identifier
42120, 1981-053QG
Orbit
LEO
Country
Flag of CISCIS
Related business
Manufacturer
Unknown
Mission
Spacecraft
Bus & Motor
Unknown
Mass
Unknown
Launch date (UTC)
1981-06-04 (45 years ago)
Launch vehicle
Unknown
Launch site
Plesetsk Missile And Space Complex (PKMTR)
Object type
Payload
Rocket body
Debris
Shape & HBR
Unknown shape, 0.1 m
Radar Cross Section
Small (<0.1 m²)

Expand to show TLE details & history
Last TLE update: 2 days ago

TLE from 2 days ago
0 COSMOS 1275 DEB
1 42120U 81053QG  26032.29972265  .00000845  00000-0  10231-2 0  9997
2 42120  82.9290 143.9562 0189337  13.8162 346.8063 13.58037333602928
Epoch: 2026-02-01T07:11Z
TLE epoch observation values (Epoch: 2026-02-01T07:11:36.036Z)
Latitude
-0.00005°
Longitude
-95.4553°
Altitude
909.028 km
Speed
7.465 km/s
True Right ascension
09h 35m 49s
True Declination
0° 00' 00"
Sunlit
Object was in full shadow at epoch
Visualization orbit readout
Latitude
Unknown
Longitude
Unknown
Altitude
Unknown
Speed
Unknown
Apparent Right ascension
Unknown
Apparent Declination
Unknown
Sunlit
N/A
Visualization observer readout
Local Sidereal Time
15:17:46
Azimuth
Unknown
Elevation
Unknown
Doppler factor
Unknown
Orbital elements
Apogee altitude
1,180.458 km
Perigee altitude
899.552 km
Semi-major axis
7,418.142 km
Eccentricity
0.01893
Inclination
82.929°
RAAN
143.9562°
Arg. of periapsis
13.8162°
True anomaly
346.29943°
Mean anomaly
346.8063°
Eccentric anomaly
346.55405°
Mean motion
3.39704 °/min
Orbital period
105.97 mins
BSTAR
0.0010231
Loading maneuver chart data...
Computing Atmospheric mass density...
Loading historical data...
Loading historical data...
Loading historical data...
Loading historical data...
Loading historical data...
Loading historical data...
Loading historical data...

Documentation

Showing up to 5 results
|